Regional Weather Roundup
Issued by NWS Mt. Holly, NJ

Home | Current Version | Previous Version | Text Only | Print | Product List | Glossary On
Versions: 1 2 3 4 5 6 7 8 9 10 11 12 13 14 15 16 17 18 19 20 21 22 23 24 25 26 27
000
ASUS41 KPHI 051312
RWRPHI

REGIONAL WEATHER ROUNDUP
NATIONAL WEATHER SERVICE MOUNT HOLLY NJ
900 AM EDT THU MAY 05 2016

NOTE:  "FAIR" INDICATES FEW OR NO CLOUDS BELOW 12,000 FEET WITH NO
SIGNIFICANT WEATHER AND/OR OBSTRUCTIONS TO VISIBILITY.

 * = STATION DOES NOT REPORT PRECIPITATION (E.G. RAIN, SNOW, ETC.)
        OR FOG.

NJZ015>026-051400-
SOUTHERN NEW JERSEY

CITY           SKY/WX    TMP DP  RH WIND       PRES   REMARKS
POMONA         CLOUDY    47  45  93 N12       29.68R FOG
WILDWOOD*      CLOUDY   N/A N/A N/A NE15G21   29.67R
MILLVILLE      CLOUDY    50  44  80 NE14G23   29.68R
WRIGHTSTOWN    LGT RAIN  47  46  95 N10       29.67R
MOUNT HOLLY    CLOUDY    48  44  86 N10       29.70R
TRENTON        CLOUDY    48  44  86 NE10      29.69S

$$
NJZ001>014-051400-
NORTHERN NEW JERSEY

CITY           SKY/WX    TMP DP  RH WIND       PRES   REMARKS
SUSSEX         CLOUDY    48  43  82 NE10G18   29.72S
ANDOVER*         N/A     47  43  86 NE8       29.71F
MORRISTOWN     CLOUDY    48  45  87 NE13      29.71F
NEWARK         CLOUDY    48  45  89 N13       29.70F
TETERBORO      CLOUDY    50  41  71 N9        29.70S
CALDWELL       CLOUDY    50  31  48 NE8       29.71S
SOMERVILLE     CLOUDY    50  43  77 N7        29.69S
ALLAIRE*       CLOUDY    47  43  86 NE9       29.71R
TOMS RIVER*    CLOUDY    46  43  87 NE14      29.69S

$$
PAZ043-044-047-054-055-060>062-066>071-051400-
EASTERN PENNSYLVANIA

CITY           SKY/WX    TMP DP  RH WIND       PRES   REMARKS
PHILADELPHIA   CLOUDY    50  43  77 NE15G21   29.71R
NORTH PHILA    CLOUDY    50  45  83 NE12      29.72R
BLUE BELL*     CLOUDY    46  43  87 NE5       29.69S
DOYLESTOWN     CLOUDY    48  43  82 NE8       29.69S
QUAKERTOWN*    CLOUDY    48  45  87 NE7       29.71S
PERKASIE*      CLOUDY    46  45  93 NE9G20    29.71S
POTTSTOWN      CLOUDY    48  44  86 NE8       29.71R
LANCASTER      CLOUDY    49  45  86 NE9       29.69R
COATESVILLE    CLOUDY    48  48 100 NE6       29.70R
READING        CLOUDY    50  43  77 NE12      29.70R
ALLENTOWN      CLOUDY    50  43  77 NE12G18   29.71S
MOUNT POCONO   CLOUDY    41  40  96 NE12      29.69F
HAZLETON       CLOUDY    46  43  87 N7        29.72S
LEHIGHTON      CLOUDY    50  43  76 NE6       29.71S
WILKES BARRE   CLOUDY    49  42  77 NE10      29.71F

$$
DEZALL-MDZ008-012-015-019-020-051400-
DELAWARE AND EASTERN MARYLAND

CITY           SKY/WX    TMP DP  RH WIND       PRES   REMARKS
WILMINGTON     CLOUDY    50  44  80 NE13      29.69R
DOVER          CLOUDY    48  48 100 NE12      29.66S
GEORGETOWN     CLOUDY    49  46  90 NE10      29.67R
EASTON         CLOUDY   N/A N/A N/A NE10      29.71R
PATUXENT       CLOUDY    51  46  83 NE14      29.66R
OCEAN CITY     CLOUDY    49  46  90 NE10G21   29.65S
WALLOPS ISLAND LGT RAIN  50  47  89 NE20      29.64R
CAMBRIDGE      CLOUDY    50  45  81 E8        29.66R
SALISBURY      CLOUDY    49  47  93 NE7       29.66R FOG

$$
PAZ001-021-NYZ056-072-MDZ011-DCZ001-051400-
OTHER NEARBY LOCATIONS

CITY           SKY/WX    TMP DP  RH WIND       PRES   REMARKS
HARRISBURG     CLOUDY    51  45  79 E6        29.70R
STATE COLLEGE  CLOUDY    50  46  87 NE6       29.70S
WILLIAMSPORT   CLOUDY    54  45  71 E8        29.71R
BINGHAMTON     CLOUDY    46  41  82 E5        29.74R
NEW YORK CITY  CLOUDY    48  42  80 VRB6      29.73S
BALTIMORE      DRIZZLE   50  48  93 NE9       29.68R FOG
WASHINGTON DC  DRIZZLE   51  49  92 NE10      29.68R FOG

$$




USA.gov is the U.S. government's official web portal to all federal, state and local government web resources and services.